This is the latest recevied weather packets stored in our database for station/object KE6LRO. If no packets are shown the sender has not sent any weather packets the latest 10 day(s).
| Time | Temp. | Humidity | Pressure | Rain* | Wind** | Luminosity | Snow |
|---|---|---|---|---|---|---|---|
| 1777963372 | 7.22° C | 69% | 1018.3 hPa | 0 mm | - | 0 W/m² | - |
| 1777963070 | 7.78° C | 65% | 1018.1 hPa | 0 mm | - | 0 W/m² | - |
| 1777962766 | 8.89° C | 62% | 1018.2 hPa | 0 mm | - | 0 W/m² | - |
| 1777962462 | 8.89° C | 56% | 1017.9 hPa | 0 mm | - | 0 W/m² | - |
| 1777962160 | 8.89° C | 60% | 1017.7 hPa | 0 mm | - | 0 W/m² | - |
| 1777961857 | 8.33° C | 57% | 1017.8 hPa | 0 mm | - | 0 W/m² | - |
| 1777961555 | 8.33° C | 61% | 1017.8 hPa | 0 mm | - | 0 W/m² | - |
| 1777961252 | 8.89° C | 59% | 1017.8 hPa | 0 mm | - | 0 W/m² | - |
| 1777960949 | 8.89° C | 61% | 1017.9 hPa | 0 mm | - | 0 W/m² | - |
| 1777960644 | 9.44° C | 56% | 1017.5 hPa | 0 mm | - | 0 W/m² | - |
| 1777960341 | 9.44° C | 61% | 1017.7 hPa | 0 mm | - | 0 W/m² | - |
| 1777960038 | 8.89° C | 58% | 1017.6 hPa | 0 mm | - | 0 W/m² | - |
| 1777959736 | 8.89° C | 60% | 1017.5 hPa | 0 mm | - | 0 W/m² | - |
| 1777959434 | 8.89° C | 60% | 1017.3 hPa | 0 mm | - | 0 W/m² | - |
| 1777959130 | 10° C | 56% | 1017.5 hPa | 0 mm | - | 0 W/m² | - |
| 1777958827 | 9.44° C | 57% | 1017.4 hPa | 0 mm | - | 0 W/m² | - |
| 1777958524 | 10° C | 56% | 1017.2 hPa | 0 mm | - | 0 W/m² | - |
| 1777958221 | 11.11° C | 52% | 1017.3 hPa | 0 mm | - | 0 W/m² | - |
| 1777957919 | 11.11° C | 52% | 1017.3 hPa | 0 mm | - | 0 W/m² | - |
| 1777957617 | 11.11° C | 53% | 1017.2 hPa | 0 mm | - | 0 W/m² | - |
| 1777957316 | 11.67° C | 51% | 1017.2 hPa | 0 mm | - | 0 W/m² | - |
| 1777957016 | 11.11° C | 50% | 1017.2 hPa | 0 mm | - | 0 W/m² | - |
| 1777956714 | 11.67° C | 50% | 1017.2 hPa | 0 mm | - | 0 W/m² | - |
| 1777956410 | 11.11° C | 50% | 1017.3 hPa | 0 mm | - | 0 W/m² | - |
| 1777956107 | 11.11° C | 52% | 1017.3 hPa | 0 mm | - | 0 W/m² | - |
* Rain latest hour (hover to see other rain measurements)
** Current wind speed in m/s (hover to see current wind gust speed)